Weather in Makat

Kazakhstan     47˚38′52″N   53˚20′33″E
temp.,
°C
wind,
m/s
gust,
m/s
humid.,
%
clouds,
%
prec.,
mm/h
press.,
hPa
HPBL,
m
2 december, wed
wed223:00−8˚e68610 0.0 1039345
02:00−9˚e58640 0.0 1039313
05:00−10˚e57670 0.0 1038273
08:00−10˚e57670 0.0 1038264
11:00−9˚e46620 0.0 1038269
14:00−6˚e45480 0.0 1038405
17:00−5˚ene45490 0.0 1037414
20:00−7˚ene56640 0.0 1037322
3 december, thu
thu323:00−8˚ene45650 0.0 1038268
02:00−9˚ene34640 0.0 1038250
05:00−10˚ene34640 0.0 1038238
08:00−10˚ne46670 0.0 1038243
11:00−9˚ene45580 0.0 1039262
14:00−6˚ne34460 0.0 1039402
17:00−6˚ne45480 0.0 1038354
20:00−8˚ne46640 0.0 1039268
4 december, fri
fri423:00−8˚ne46640 0.0 1039249
02:00−9˚ne45630 0.0 1039239
05:00−9˚ne35620 0.0 1039231
08:00−10˚ne46620 0.0 1039223
11:00−8˚ene34550 0.0 1039250
14:00−5˚ne34440 0.0 1039332
17:00−5˚ne45460 0.0 1039344
20:00−6˚ne57630 0.0 1039252
5 december, sat
sat523:00−7˚ene46630 0.0 1039255
02:00−8˚ene46620 0.0 1039232
05:00−9˚ene46630 0.0 1039242
08:00−9˚e46610 0.0 1039245
11:00−9˚e46540 0.0 1040280
14:00−5˚e56400 0.0 1039413
17:00−6˚ene56460 0.0 1039413
20:00−8˚e58600 0.0 1039332
6 december, sun
sun623:00−9˚e58590 0.0 1040300
02:00−9˚e46600 0.0 1040253
05:00−10˚ene46610 0.0 1040230
08:00−10˚ene46610 0.0 1040216
11:00−9˚ene45530 0.0 1040260
14:00−6˚e453931 0.0 1040412
17:00−6˚ene454116 0.0 1039443
20:00−8˚ene57590 0.0 1039342